Regional Weather Roundup
Issued by NWS Charleston, WV

Home | Current Version | Previous Version | Graphics & Text | Print | Product List | Glossary On
Versions: 1 2 3 4 5 6 7 8 9 10 11 12 13 14 15 16 17 18 19 20 21 22 23 24 25 26 27 28
000
ASUS41 KRLX 271210
RWRRLX
West Virginia Regional Weather Roundup
National Weather Service Charleston WV
800 AM EDT WED JUL 27 2016

Note: "fair" indicates few or no clouds below 12,000 feet with no
significant weather and/or obstructions to visibility.

WVZ003-271300-
Northern Panhandle of West Virginia

CITY           SKY/WX    TMP DP  RH WIND       PRES   REMARKS
WHEELING       CLOUDY    74  63  68 CALM      30.04R
$$

WVZ009-271300-
Northwest West Virginia

CITY           SKY/WX    TMP DP  RH WIND       PRES   REMARKS
PARKERSBURG    FOG       72  71  97 SE3       30.05R VSB 1/2
$$

WVZ006-271300-
Western West Virginia

CITY           SKY/WX    TMP DP  RH WIND       PRES   REMARKS
HUNTINGTON     FOG       72  71  97 SE3       30.03R VSB 1/4
$$

WVZ015-271300-
West Central West Virginia

CITY           SKY/WX    TMP DP  RH WIND       PRES   REMARKS
CHARLESTON     FOG       72  70  93 SE5       30.04S VSB 1
$$

WVZ022-031-271300-
North Central West Virginia

CITY           SKY/WX    TMP DP  RH WIND       PRES   REMARKS
CLARKSBURG     FOG       71  70  96 S5        30.04S VSB 1/2
MORGANTOWN     PTSUNNY   74  70  87 CALM      30.04F
$$

WVZ025-035-042-045-271300-
Southern West Virginia

CITY           SKY/WX    TMP DP  RH WIND       PRES   REMARKS
BECKLEY          N/A     71  68  90 CALM      30.12R
LOGAN          FOG       72  72 100 CALM      30.06R VSB<1/4
BLUEFIELD        N/A     72  69  90 W7        30.15R
LEWISBURG      FOG       66  66  99 CALM      30.11S VSB<1/4
$$

WVZ047-271300-
Northern Mountains of West Virginia

CITY           SKY/WX    TMP DP  RH WIND       PRES   REMARKS
ELKINS         PTSUNNY   69  66  90 S3        30.10R
$$

WVZ052-271300-
Eastern Panhandle of West Virginia

CITY           SKY/WX    TMP DP  RH WIND       PRES   REMARKS
MARTINSBURG      N/A     77  68  73 CALM      29.99R
PETERSBURG       N/A     73  71  94 CALM      30.03R
$$




USA.gov is the U.S. government's official web portal to all federal, state and local government web resources and services.